Theta_e
305 305 305 305 305 306 305 305 305 306 306 307 308 308 308 307 308 307 307 307 307 307 306 306 306 305 305 305 304 302 300 299 297 296 295 294 293 293 292 292 292 291 291 291 290 290 289 289 288 288 288 287 287 287 287 287 287 287 287 287 287 287 287 287 287 287 287 287 287 287 287 287 287 287 287 287 287 287 286 286 286 286 286 286 286 286 286
305 305 304 304 304 305 305 305 305 305 305 306 306 306 306 306 306 306 305 306 305 305 305 304 304 304 304 303 302 301 299 298 297 296 295 294 293 292 292 292 291 291 291 291 290 290 290 290 289 289 289 288 287 287 287 287 287 287 287 287 287 287 287 287 287 286 286 286 286 286 287 287 287 287 287 287 287 287 287 287 286 286 286 286 286 286 286
304 304 304 304 304 305 305 305 305 305 305 305 305 305 305 305 305 304 304 305 305 304 304 303 302 302 301 300 300 299 298 297 296 296 295 294 293 292 292 291 291 291 291 290 290 290 290 290 290 289 289 288 288 287 287 287 287 287 287 287 287 287 287 286 287 286 286 286 286 286 286 286 286 286 286 286 286 287 287 287 287 286 286 286 286 286 286
303 303 303 303 303 302 303 303 303 304 304 304 304 304 304 304 304 303 304 304 303 303 302 301 300 299 299 299 298 297 296 296 295 295 295 295 294 293 292 291 291 291 290 290 290 290 290 290 290 289 289 288 288 288 287 287 287 287 287 287 286 287 287 286 286 286 286 286 286 286 286 286 286 286 286 286 286 286 286 286 286 286 286 286 286 286 286
303 303 303 302 301 301 301 302 302 303 303 303 303 303 303 303 302 302 303 302 300 300 299 298 299 298 297 297 296 296 295 294 294 294 294 294 294 293 292 291 291 291 290 290 290 290 290 290 290 289 289 288 288 288 287 287 287 286 287 287 287 286 286 286 286 286 286 286 286 286 286 286 286 286 286 286 286 286 286 286 286 286 286 286 286 286 286
301 302 302 301 300 301 302 301 301 301 301 301 301 301 300 300 300 301 301 299 298 297 297 297 297 296 295 295 294 294 293 293 293 292 292 292 293 293 293 292 291 291 290 290 290 290 290 290 290 289 288 288 288 287 287 286 286 286 286 286 286 286 286 286 286 286 285 285 285 286 286 286 286 286 286 286 286 286 286 286 286 286 286 286 286 286 286
300 300 300 299 299 300 300 300 300 300 299 299 299 299 299 299 299 300 300 299 298 297 295 294 294 293 292 292 292 292 293 292 292 292 292 292 292 292 293 292 292 291 290 290 290 290 290 289 289 289 288 287 287 287 286 286 285 285 286 286 286 286 286 286 285 285 284 284 284 285 285 285 285 285 285 285 285 285 285 285 286 286 286 286 286 286 286
298 298 298 298 299 298 298 299 298 298 298 298 299 299 299 299 299 299 299 298 297 295 293 292 292 291 292 292 292 292 292 292 292 291 291 291 291 291 291 291 291 291 290 290 290 289 289 289 289 288 287 287 286 286 285 285 285 285 285 285 285 285 285 285 284 284 284 283 283 283 284 284 284 284 284 284 285 285 284 284 285 285 285 286 286 286 286
297 297 298 298 299 298 298 298 298 297 297 297 297 297 298 298 298 298 298 296 294 292 292 291 291 292 292 292 291 292 292 292 291 290 290 290 290 289 289 290 290 291 290 290 290 289 289 289 288 287 287 286 286 286 286 286 286 285 285 284 284 283 283 283 282 282 282 282 281 281 282 282 283 283 283 283 284 284 284 283 284 285 285 285 285 285 286
298 297 298 298 298 298 298 297 297 296 296 296 296 296 297 297 297 296 296 294 292 291 291 291 292 293 292 291 291 292 292 291 291 290 290 290 290 290 290 290 290 291 291 290 290 289 289 288 288 287 286 286 286 286 286 286 286 285 284 283 282 281 281 281 281 280 280 280 280 280 280 280 280 281 281 282 282 283 283 282 283 284 284 284 285 285 285
297 297 297 297 297 297 297 296 296 295 296 296 296 295 295 295 294 294 293 292 291 291 291 291 292 292 291 290 292 292 292 291 291 290 290 290 290 290 290 290 291 291 290 290 290 289 289 288 288 287 287 287 286 286 286 286 285 284 283 282 281 281 280 280 279 279 279 279 278 278 278 278 278 277 278 278 279 279 280 280 280 282 283 284 284 284 284
297 297 296 296 296 296 296 295 295 295 296 295 294 294 294 294 293 292 291 291 291 291 291 290 291 291 291 291 292 292 291 291 290 290 290 290 290 290 290 290 290 290 290 289 289 289 289 288 287 287 287 287 286 286 285 284 283 283 282 281 281 280 280 279 278 278 277 277 276 276 276 276 276 276 275 275 276 276 276 276 277 278 280 282 282 283 284
296 296 296 295 295 295 296 295 295 295 295 294 294 293 292 292 292 291 290 291 291 291 291 290 290 291 291 291 291 291 291 290 290 290 290 290 290 290 290 290 289 289 289 289 288 288 288 287 287 287 287 286 285 284 284 283 282 282 281 280 280 279 279 278 278 277 276 275 275 275 275 274 274 274 274 274 274 274 274 274 274 274 276 277 279 281 283
294 294 295 294 294 295 295 295 295 295 294 293 293 292 291 291 291 291 291 291 291 290 290 290 290 290 290 290 290 290 290 290 290 290 290 290 290 289 289 289 288 288 288 288 288 288 287 286 286 286 285 284 283 283 282 282 281 280 280 279 279 278 278 278 278 277 277 276 275 275 274 274 273 273 273 273 272 272 272 272 272 273 273 274 274 277 280
293 293 294 293 293 294 294 293 293 294 294 294 293 292 292 292 292 291 291 291 291 290 290 290 290 290 290 290 290 290 290 290 290 290 290 289 289 288 288 288 287 287 287 287 287 287 286 285 284 284 283 283 282 282 281 280 279 279 278 278 278 278 278 278 278 278 277 277 276 275 274 273 271 271 271 270 270 270 270 270 270 270 271 271 271 272 275
292 292 293 294 293 293 293 293 293 293 294 294 293 293 292 292 292 291 291 291 291 290 290 290 290 290 290 290 290 290 290 289 289 289 289 289 288 288 287 287 287 287 287 286 286 285 284 283 283 282 282 281 281 281 280 279 278 278 277 277 277 278 278 278 278 277 277 277 276 274 273 271 269 269 268 268 268 268 268 268 268 268 269 269 269 270 271
292 292 292 293 293 293 293 293 293 293 293 293 292 292 292 292 291 291 291 291 290 290 290 290 290 290 290 290 289 289 289 289 289 288 288 288 287 287 286 286 286 286 285 285 284 283 283 282 282 282 281 280 280 279 279 278 277 277 277 277 277 277 277 277 277 276 276 275 274 272 271 269 268 267 266 266 266 266 266 267 267 267 268 268 268 269 270
292 292 292 292 292 292 292 293 293 292 292 292 292 291 291 291 291 291 291 290 290 290 289 289 289 289 289 289 289 289 289 288 288 287 287 286 286 286 286 285 285 284 284 283 282 282 282 282 281 280 279 278 278 278 277 277 276 276 276 276 276 276 276 275 275 274 273 272 272 270 269 267 265 265 264 264 264 265 265 266 266 267 267 268 268 269 269
291 291 291 292 292 292 292 292 292 292 292 292 292 291 291 291 291 290 290 290 290 289 289 289 289 289 289 288 288 288 287 287 287 287 286 286 285 285 285 284 283 283 282 282 282 282 282 281 280 279 278 277 277 276 276 276 276 276 275 275 275 275 274 273 272 271 270 270 269 268 266 265 264 264 263 264 264 264 264 265 265 266 266 267 268 268 269
291 291 291 292 292 292 292 292 292 292 292 291 291 291 291 291 290 290 290 290 289 289 289 288 288 288 288 287 287 287 287 286 286 286 285 285 284 284 283 282 282 281 281 281 281 281 281 280 279 278 277 277 276 276 275 275 275 275 274 273 273 272 271 270 269 269 268 268 266 265 264 264 263 263 263 263 263 263 264 264 264 265 265 266 266 267 268
291 291 291 292 292 291 292 292 292 292 291 291 291 291 291 290 290 290 290 289 289 289 289 288 288 287 287 286 286 286 286 285 285 284 284 284 283 282 282 281 281 281 281 281 280 280 279 279 278 277 277 276 276 275 275 274 274 273 273 272 271 270 269 268 268 267 266 265 263 263 263 263 263 263 263 263 263 263 263 264 264 264 265 265 265 266 266
291 291 291 291 291 291 292 292 292 291 291 291 291 290 290 290 290 289 289 289 289 289 288 288 287 287 286 286 285 285 285 284 284 283 283 282 282 281 281 281 281 281 280 280 279 279 278 277 277 276 276 276 275 274 274 273 273 272 272 270 269 268 267 267 267 265 263 262 263 263 263 263 263 263 263 263 263 264 264 264 264 265 265 266 266 267 267
291 291 292 292 292 292 292 292 292 291 291 291 290 290 290 290 289 289 289 289 289 288 288 287 287 286 286 285 285 285 284 283 283 282 282 281 281 281 281 281 280 280 279 279 278 278 277 276 276 276 276 275 275 274 273 273 272 271 270 268 268 267 266 265 263 262 261 262 262 262 262 263 263 263 263 263 263 264 264 264 265 265 266 266 267 267 268
292 292 292 292 292 292 291 291 291 291 291 290 290 289 289 289 289 289 288 288 288 287 287 286 286 285 285 284 284 284 283 282 282 281 281 280 280 280 280 280 279 279 278 278 278 277 276 276 275 275 275 275 274 273 273 272 271 271 270 268 267 266 264 262 262 262 262 262 262 262 262 263 263 263 263 263 263 263 264 264 265 265 265 266 267 267 268
292 292 292 292 292 291 291 291 291 291 290 290 289 289 288 288 288 288 288 287 287 286 286 285 285 284 284 284 283 282 282 281 281 280 280 280 280 280 279 279 278 278 277 277 277 276 275 275 275 275 275 274 273 272 272 271 271 270 269 267 265 263 262 262 262 262 262 263 263 263 263 262 263 263 263 263 263 263 263 263 264 264 265 265 266 266 267
292 292 292 292 291 291 291 291 290 290 290 290 289 289 288 288 287 287 287 286 286 285 285 284 284 284 283 283 282 281 281 280 280 280 280 280 280 279 278 278 277 277 276 276 276 275 275 275 275 274 274 274 273 272 271 271 270 268 266 264 263 263 264 264 263 263 263 263 263 263 262 262 263 263 263 263 263 263 263 263 263 264 264 264 265 265 265
291 291 291 291 291 291 291 290 290 290 289 289 289 288 288 287 286 286 286 285 284 284 284 283 283 283 282 281 281 280 280 279 279 279 279 280 279 278 277 276 276 276 276 275 274 274 274 274 274 274 274 273 272 271 271 269 267 266 265 265 265 265 265 265 264 264 264 263 262 262 262 263 263 263 263 263 263 263 263 263 263 263 264 264 264 265 265
291 291 291 291 291 291 290 290 289 289 289 288 288 288 287 286 285 285 284 283 283 283 283 282 282 281 281 280 280 279 279 279 279 279 279 279 278 277 276 275 275 275 275 274 274 274 274 274 273 273 273 273 272 271 270 267 266 266 267 267 266 266 266 266 265 264 263 263 263 263 263 263 263 263 263 263 263 263 263 263 263 264 264 264 265 265 266
291 291 291 291 290 290 290 289 289 289 288 288 287 286 286 285 284 284 283 282 282 282 281 281 281 280 279 279 279 279 279 279 279 279 279 278 277 276 275 275 274 274 274 274 274 273 273 272 272 273 273 273 272 271 269 267 267 268 268 268 267 267 266 266 265 264 263 263 263 263 263 263 263 263 263 263 263 263 263 264 264 264 264 265 265 265 266
291 291 291 290 290 289 289 289 288 288 287 287 286 285 284 284 283 282 282 281 281 280 280 279 279 279 278 278 278 278 278 279 278 278 278 277 276 275 274 274 274 274 274 273 272 272 271 272 272 273 273 273 272 270 269 269 269 270 269 269 268 267 266 266 265 263 263 263 263 264 264 264 264 264 264 264 264 264 264 264 264 265 265 265 265 265 267
291 291 290 289 289 288 288 288 287 286 286 285 284 283 283 283 282 281 281 281 280 280 279 278 278 278 277 278 278 278 278 278 278 277 277 276 275 274 274 273 273 273 273 272 271 271 271 272 272 273 273 273 271 270 269 270 270 270 270 269 268 267 267 267 266 265 264 264 264 264 265 265 265 265 265 264 265 265 265 265 265 265 266 266 266 267 268
290 289 288 288 287 286 286 286 285 285 284 283 283 283 282 282 281 280 280 279 279 279 278 278 277 277 277 278 278 278 278 278 277 276 276 275 275 274 273 273 272 272 271 270 270 270 270 271 272 273 273 272 271 270 270 270 271 271 270 269 268 267 268 268 267 266 266 265 265 265 265 265 265 265 265 265 266 266 266 266 266 266 267 267 268 269 270
288 287 287 287 286 285 285 285 284 283 283 282 282 282 281 281 280 279 278 278 278 278 277 277 277 277 277 277 278 278 277 277 276 275 275 274 274 273 272 272 272 271 270 270 270 270 270 271 271 272 272 272 271 271 271 271 271 271 270 269 268 268 268 268 267 267 266 266 265 265 265 265 266 266 266 267 267 267 267 267 267 267 268 268 269 271 271
288 287 287 287 286 285 285 285 284 282 282 281 281 281 280 279 279 278 277 277 277 277 277 277 277 277 277 277 277 277 276 275 275 274 274 273 273 272 272 272 271 271 270 270 269 270 270 270 270 271 272 272 271 271 271 271 271 271 270 269 268 268 268 268 268 267 266 266 266 266 266 266 266 266 267 267 268 268 268 268 268 269 269 270 271 271 272
287 287 286 286 285 285 284 283 282 281 281 280 280 279 278 278 277 276 276 276 276 276 276 276 276 276 277 277 276 275 275 274 274 273 272 272 272 271 272 272 271 271 271 270 270 270 270 270 269 270 271 271 271 271 271 271 271 271 271 270 269 268 268 268 268 268 267 266 266 266 266 266 266 267 267 268 268 268 269 269 269 269 270 270 271 272 272
285 285 285 284 284 283 282 281 281 280 280 279 278 277 277 276 276 276 275 275 276 276 276 276 275 276 276 275 275 274 274 273 272 272 271 271 271 271 271 271 270 270 271 271 270 270 270 269 270 270 271 270 270 271 271 272 272 272 271 270 269 269 269 269 269 269 268 267 266 266 267 267 267 267 268 268 268 268 268 269 269 270 270 270 271 271 272
284 283 283 283 282 281 280 280 279 279 278 277 276 276 275 275 275 275 275 276 275 275 275 275 275 275 275 274 273 273 273 272 271 271 271 270 269 270 270 270 269 269 270 270 270 270 270 269 270 270 270 269 270 271 271 272 272 272 271 270 270 269 269 269 269 269 269 268 267 267 267 268 268 268 269 269 269 269 269 269 270 270 270 271 271 272 272
282 281 281 280 280 279 279 278 278 277 276 276 275 275 275 275 275 275 276 275 275 274 274 274 274 274 273 273 273 272 272 271 270 269 269 269 268 269 269 269 268 269 269 270 270 270 269 269 270 270 269 268 269 270 271 272 272 271 271 270 270 269 269 269 269 269 269 269 268 268 268 268 269 269 269 270 270 270 270 270 271 271 271 271 272 273 273
280 279 279 278 278 277 277 276 276 275 275 275 274 274 275 275 275 275 275 275 274 273 273 273 272 272 272 272 272 271 271 270 268 268 268 267 268 268 269 268 268 268 269 269 269 269 269 269 270 269 268 268 269 270 270 271 272 271 271 271 270 270 270 269 270 269 269 269 269 269 269 269 269 270 270 270 270 270 271 271 271 271 271 272 272 272 273
278 277 277 276 276 275 274 274 274 274 274 274 274 274 274 274 274 274 274 273 272 272 272 271 271 271 271 271 270 270 269 268 267 267 267 267 267 268 269 268 268 268 269 269 268 268 268 269 269 269 268 268 268 269 270 270 271 271 271 271 271 270 270 270 270 270 270 270 270 270 270 270 270 270 270 270 270 270 271 271 272 272 272 272 272 272 273
276 275 275 274 274 273 273 273 273 273 273 273 274 273 273 274 273 273 273 272 271 271 270 270 270 270 269 269 268 267 267 267 267 266 266 266 267 268 268 268 268 268 268 268 268 268 269 269 269 268 268 268 268 269 269 269 270 271 271 271 271 271 270 270 270 270 270 270 270 270 271 271 271 271 271 271 271 271 271 271 271 272 272 272 272 272 272
274 274 273 273 273 273 273 273 273 273 272 272 273 273 272 272 272 272 271 271 270 269 269 269 268 268 267 266 266 266 266 266 266 265 265 266 267 268 268 268 268 268 268 268 268 268 269 269 268 268 267 268 268 268 268 269 269 270 271 271 271 271 270 270 270 270 270 270 271 271 271 271 271 271 272 271 271 271 271 271 272 272 272 272 272 272 272
273 272 272 272 272 272 272 272 272 272 272 272 272 271 271 271 270 270 270 269 268 268 267 267 266 265 265 264 264 264 265 265 265 265 266 266 266 267 268 268 268 268 268 268 268 269 269 269 268 267 267 267 268 268 268 268 269 269 270 270 270 270 270 270 270 270 270 271 271 271 271 271 272 272 272 272 272 271 271 272 272 272 272 272 272 272 272
272 272 272 272 272 272 272 272 272 272 271 271 271 270 270 270 269 269 268 267 267 266 265 265 264 263 263 263 262 262 263 264 264 265 266 266 266 266 267 267 267 267 268 268 268 269 269 268 267 267 267 267 268 268 268 268 268 269 269 269 270 270 270 270 270 270 270 270 271 271 271 271 271 271 271 272 272 272 272 272 272 272 272 272 272 272 273
272 272 271 271 271 271 271 271 271 271 270 270 270 269 269 268 268 267 266 265 265 264 263 263 262 262 262 262 262 262 263 263 264 265 266 266 266 266 266 267 267 267 267 267 268 269 268 268 267 267 267 267 268 268 268 268 268 268 268 269 269 269 270 270 270 270 270 270 270 270 271 271 271 271 271 271 271 271 271 271 271 271 271 271 272 272 272
271 271 271 271 270 270 270 270 270 269 269 269 269 268 267 267 266 265 264 263 263 262 262 261 261 261 261 261 261 262 263 264 264 265 266 266 266 266 266 266 267 267 267 267 268 268 268 267 267 267 267 267 268 268 268 268 268 268 268 268 268 268 269 269 269 270 270 270 270 270 270 270 270 270 270 270 270 271 271 271 271 271 271 271 271 271 271
270 270 270 270 270 269 269 269 269 268 268 268 267 267 266 265 264 263 262 261 261 261 261 261 261 261 261 261 262 262 263 264 265 265 265 266 266 266 266 266 266 266 267 267 268 268 267 267 266 267 267 267 268 268 268 268 268 268 268 268 268 268 268 268 268 269 269 270 270 270 270 270 270 270 270 270 270 270 270 270 270 270 270 270 270 270 271
269 269 269 269 269 269 269 268 268 267 267 266 266 265 264 263 262 262 261 261 261 261 261 261 261 262 262 262 262 263 263 264 264 265 265 265 266 266 266 266 266 266 267 267 267 267 266 266 266 267 267 268 268 268 268 268 268 268 268 268 268 268 268 267 268 268 268 269 269 269 270 270 270 270 270 270 270 269 269 269 269 269 270 270 270 270 270
269 269 268 268 268 268 268 267 267 266 266 265 264 263 263 262 262 262 261 261 261 261 261 261 262 262 262 263 263 264 264 264 265 265 265 265 266 266 266 266 266 266 267 267 266 266 265 266 266 267 267 267 268 268 268 268 268 268 268 267 267 267 267 267 267 267 267 267 268 268 269 269 269 269 269 269 269 269 269 269 269 268 269 269 269 269 269
268 268 268 268 268 267 267 267 266 266 265 264 264 264 263 263 263 262 261 261 261 261 261 262 262 262 263 263 264 264 265 265 265 265 265 265 266 266 266 266 266 266 266 266 265 265 266 266 266 267 267 267 267 267 267 267 267 267 267 267 267 267 267 267 267 267 267 267 267 267 267 268 268 268 268 269 269 269 269 268 268 268 268 268 269 269 269
267 267 267 267 267 267 266 266 266 265 265 265 264 264 263 263 262 262 262 261 262 262 262 262 262 263 263 264 264 265 265 265 265 265 265 265 265 265 265 266 266 266 265 265 265 266 266 266 266 266 267 267 267 267 267 267 267 267 267 267 267 267 267 267 267 267 267 267 267 267 267 267 267 267 267 268 268 268 268 268 268 268 268 268 268 269 269
267 266 266 266 266 266 266 266 265 265 265 265 265 264 263 262 262 262 262 262 262 262 263 263 263 263 264 264 264 265 265 265 265 265 265 265 265 265 265 266 265 265 265 265 265 266 266 266 266 267 267 267 267 267 267 267 267 267 267 267 267 267 267 267 267 267 267 267 267 267 267 267 267 267 267 267 267 267 267 267 268 268 268 268 268 268 268
Wind_Speed
17 18 19 18 17 16 16 17 19 19 18 18 17 17 19 16 13 12 12 17 20 17 15 18 18 14 9 6 6 9 10 10 11 10 10 10 10 9 9 8 8 8 8 7 7 7 8 8 9 9 10 11 12 13 14 14 15 16 18 19 21 22 23 25 26 27 28 29 30 29 30 30 31 33 35 36 37 37 36 35 34 33 32 31 31 30 30
15 17 18 18 18 18 18 20 22 22 22 24 23 21 22 21 18 18 20 24 24 19 19 21 17 8 2 0 4 7 8 8 9 9 10 10 10 9 9 9 8 8 8 8 9 9 9 9 10 11 12 13 15 16 16 17 18 18 19 20 21 22 23 25 26 28 30 31 32 33 34 34 33 34 35 36 38 39 39 39 37 36 36 35 34 33 32
11 14 17 18 15 15 15 15 18 22 24 25 23 21 21 21 20 21 23 23 20 16 12 8 4 2 1 2 4 5 6 7 8 9 9 10 10 9 9 8 8 7 8 8 9 9 9 10 10 11 12 15 19 20 21 21 22 22 22 22 23 24 25 26 28 29 30 32 33 35 35 36 37 37 37 38 39 40 41 42 42 41 39 38 36 35 35
10 11 13 12 8 8 11 12 15 20 21 20 19 17 17 19 20 22 22 18 12 6 3 4 3 1 0 2 3 4 5 6 6 7 9 10 11 11 10 9 8 8 8 8 9 10 10 11 11 12 13 17 21 23 24 25 26 27 28 29 30 30 30 31 32 32 33 34 35 36 36 37 38 38 40 41 42 43 43 44 44 45 44 42 40 38 37
6 7 8 5 5 7 11 11 12 16 16 16 17 16 17 20 19 17 15 10 4 1 2 2 2 2 1 2 3 3 4 4 5 7 9 10 11 12 12 11 10 10 10 10 11 11 12 13 13 14 17 21 24 25 26 27 29 32 34 35 36 37 38 38 38 38 37 37 38 39 39 39 39 39 40 41 42 44 45 45 46 47 47 47 46 43 41
6 8 6 4 6 10 8 3 4 11 14 15 16 16 17 18 16 11 7 2 3 1 1 2 2 0 2 4 4 5 4 5 7 10 11 11 12 14 14 14 13 12 11 12 13 13 14 14 15 18 22 25 26 25 26 29 31 34 37 39 39 40 42 43 43 43 42 42 43 43 43 43 43 43 43 42 42 43 44 45 46 47 48 49 49 49 48
9 9 8 10 12 9 2 2 3 7 10 11 14 16 18 19 17 15 12 7 3 2 3 3 3 4 6 8 8 8 8 8 11 13 13 14 14 15 16 16 16 16 16 17 18 19 19 21 23 25 27 26 25 26 29 32 33 34 37 40 43 45 45 46 46 46 45 45 45 47 47 46 45 46 46 45 45 45 45 46 46 47 48 49 50 51 52
9 8 9 11 9 3 2 2 3 3 5 8 11 14 14 13 12 13 13 6 2 5 7 6 6 7 8 10 12 13 13 13 14 15 15 15 16 17 19 20 20 22 22 22 23 25 26 28 29 28 27 25 25 29 34 37 37 37 38 41 46 48 48 48 47 46 46 45 45 46 48 49 49 49 48 48 48 47 47 48 48 48 48 49 49 50 52
8 9 10 11 10 9 8 6 2 1 3 5 6 8 7 4 4 6 4 3 6 5 6 7 7 7 8 9 12 16 14 11 10 12 14 15 16 18 20 21 23 24 23 23 25 27 29 30 28 26 26 28 30 35 39 41 42 43 42 44 46 47 46 46 45 44 44 44 43 44 48 52 54 54 54 53 53 52 51 52 53 52 51 50 51 51 51
7 9 10 9 11 11 7 3 4 6 5 5 5 6 6 1 2 2 5 6 3 5 7 8 6 6 5 6 10 11 7 4 6 8 11 13 15 16 18 19 20 20 19 22 26 28 30 31 29 27 29 34 38 41 44 46 47 47 47 47 48 46 46 48 47 43 42 42 43 44 48 52 56 57 58 58 58 57 57 57 58 58 56 54 53 53 52
7 9 10 9 10 7 2 1 3 5 5 5 5 8 8 0 6 7 7 3 4 5 8 9 6 5 5 6 9 9 5 4 8 10 12 14 15 16 16 16 17 18 20 25 29 31 32 33 32 32 35 39 41 44 47 49 50 50 49 49 49 49 51 52 50 47 45 45 46 47 49 52 54 56 57 59 61 61 59 59 59 62 63 61 58 57 56
9 10 9 8 8 5 0 2 3 2 3 2 3 9 8 4 7 4 2 4 8 7 10 10 6 6 7 8 12 15 13 11 12 13 15 17 18 17 16 16 18 21 25 28 30 32 33 33 34 37 40 42 44 47 49 49 50 50 51 52 52 53 55 55 53 51 49 49 48 49 51 52 54 55 56 57 58 57 55 56 57 60 64 66 65 64 62
11 12 10 7 8 7 5 8 7 3 4 2 7 8 2 6 5 4 4 7 10 10 11 10 8 10 13 15 19 20 18 15 14 15 17 18 17 15 14 18 23 26 28 29 31 32 33 34 37 40 42 44 46 47 48 49 51 52 53 55 56 57 57 57 56 54 52 51 51 51 52 53 55 57 56 55 55 55 55 57 57 60 63 65 66 69 68
9 10 10 9 8 6 5 5 4 7 5 5 6 1 3 6 9 9 8 11 12 12 13 13 14 16 18 20 21 20 18 17 17 17 18 17 18 18 19 23 26 28 29 31 31 33 34 36 39 41 42 44 45 47 49 51 53 54 55 56 56 57 58 58 58 57 56 56 56 56 56 55 55 57 58 57 57 57 57 58 58 60 63 63 65 71 74
7 8 8 8 7 3 5 5 2 5 7 7 4 2 3 8 11 12 12 13 14 13 14 15 16 18 19 19 19 18 18 18 17 16 16 18 22 25 25 26 27 28 30 32 33 35 36 37 39 40 42 44 46 49 51 52 53 54 54 55 55 57 58 59 59 60 60 60 60 60 59 57 55 56 59 59 57 56 56 57 57 59 64 65 65 69 74
6 8 7 6 6 3 7 8 6 7 8 10 10 9 11 14 15 13 12 14 14 13 13 15 17 17 18 19 19 19 19 17 15 15 19 23 26 27 26 26 28 30 31 33 34 35 35 36 38 40 43 47 49 51 52 51 52 52 52 53 55 57 58 59 59 60 60 61 61 61 60 57 54 56 58 56 54 54 54 53 53 55 59 61 62 64 68
8 9 9 8 12 11 7 10 11 12 16 21 22 19 19 19 19 16 14 16 16 14 14 16 17 17 19 20 20 19 17 15 15 19 24 26 26 26 27 27 29 31 32 33 34 35 35 37 41 43 46 48 49 51 50 49 49 51 52 53 55 56 57 58 58 58 59 60 60 60 58 55 54 55 54 49 47 47 45 43 44 46 47 48 48 50 54
11 13 15 16 20 22 19 17 18 21 24 27 26 23 22 21 21 20 17 17 16 15 14 15 16 17 19 19 18 17 16 17 20 23 25 25 25 26 27 28 30 31 31 32 33 35 38 41 43 46 47 46 47 48 47 46 47 48 50 52 54 55 55 56 56 57 58 59 59 57 55 52 50 49 46 41 40 40 38 37 39 40 41 41 39 40 41
11 11 13 16 20 25 26 22 22 23 25 24 23 21 20 19 20 19 17 17 18 19 19 18 18 19 18 17 18 18 20 22 24 25 25 25 25 27 27 29 30 30 31 33 36 39 42 44 45 46 46 45 44 44 44 44 45 47 48 50 52 54 54 55 55 55 55 56 56 54 51 49 48 45 40 37 37 37 36 36 37 37 38 38 38 38 39
13 11 14 20 25 28 27 23 22 23 23 23 24 23 22 21 19 18 19 22 23 24 23 22 21 21 19 19 20 21 22 24 25 25 25 25 26 26 27 28 29 30 33 36 39 43 45 46 45 45 45 43 42 41 41 42 43 46 48 48 50 52 53 53 54 54 54 53 51 50 48 47 46 45 40 37 36 37 36 36 37 38 39 39 39 39 39
12 13 17 22 24 24 25 25 24 23 24 25 25 23 21 20 19 20 23 25 25 25 25 24 23 23 22 21 21 23 23 24 23 24 24 25 26 26 27 28 30 33 36 39 42 44 45 44 44 44 43 42 40 39 40 41 42 44 46 47 48 50 51 52 53 52 50 46 43 45 47 47 46 45 41 38 38 39 39 37 37 39 40 41 42 41 40
9 11 15 18 14 12 17 21 20 20 21 22 22 20 19 18 20 22 24 26 27 26 26 25 24 24 24 22 23 24 23 22 22 23 24 25 26 26 27 29 32 35 38 41 42 43 43 42 42 42 41 39 38 38 39 40 41 43 45 47 49 50 51 52 51 47 44 42 42 44 46 47 47 46 43 39 36 37 40 39 38 38 41 43 44 44 45
11 14 18 20 15 13 19 23 22 21 20 17 16 18 19 20 22 23 24 26 27 27 26 25 24 24 23 23 24 24 23 22 23 24 25 25 26 27 29 32 35 37 40 41 41 42 41 40 39 39 39 38 37 37 38 39 40 42 43 46 49 51 50 48 46 43 42 43 43 43 43 44 45 47 46 42 38 36 36 38 38 39 40 43 43 43 45
17 22 26 25 20 19 24 27 26 23 19 16 17 19 22 25 26 26 26 26 26 26 25 25 25 24 23 23 23 23 23 23 23 23 24 25 26 28 31 34 36 39 39 40 40 39 38 37 37 38 38 37 37 38 39 39 40 42 43 44 47 47 46 45 44 42 42 43 43 42 42 43 44 44 42 42 41 39 36 35 36 37 38 40 42 42 42
24 28 31 28 25 25 27 27 27 27 25 25 24 24 24 27 27 27 26 26 25 25 24 24 24 24 23 22 22 22 23 23 23 24 25 26 27 30 33 35 37 38 38 38 37 35 35 35 35 36 36 36 36 37 39 39 40 41 41 41 42 43 44 44 44 42 42 42 42 42 42 42 43 42 40 39 40 42 41 38 37 37 37 37 39 39 40
31 33 33 30 28 29 28 25 25 27 28 29 28 26 26 26 25 25 25 24 24 24 23 23 23 24 23 23 22 22 22 23 23 24 26 27 29 32 34 35 35 36 35 34 33 31 32 33 33 34 36 36 36 37 39 39 38 38 38 38 39 41 41 41 41 41 41 41 41 41 41 41 41 41 41 41 40 41 42 42 41 40 40 39 38 37 37
32 32 30 24 22 27 28 25 24 25 26 26 26 26 26 25 23 23 23 22 22 22 22 22 23 23 23 22 22 22 23 23 24 25 26 29 31 33 34 34 34 33 33 31 29 29 30 31 32 34 35 35 35 37 38 37 37 37 38 39 39 40 40 40 39 39 40 39 40 40 40 41 41 41 42 42 41 40 41 41 42 43 43 42 41 38 35
29 30 27 22 21 25 26 24 23 24 25 26 26 26 26 25 23 22 21 21 21 22 22 23 23 22 21 21 22 22 23 24 25 27 28 30 32 32 32 32 32 31 30 28 27 27 28 30 32 33 34 34 35 37 37 37 38 39 40 40 40 40 40 39 38 38 38 39 39 40 41 42 42 42 42 42 41 40 40 40 41 41 41 41 41 40 37
28 27 28 28 28 28 26 25 25 26 27 28 28 26 25 24 23 22 21 21 22 22 21 21 21 21 21 21 22 23 24 25 26 28 30 31 32 31 31 30 30 28 27 25 25 26 27 29 31 33 33 34 35 36 36 37 38 39 40 41 40 40 39 38 37 37 38 38 39 40 40 40 40 40 40 41 40 39 39 39 39 39 40 40 39 39 38
29 27 27 28 28 28 27 27 28 29 29 29 28 25 24 23 22 22 22 23 22 21 21 21 21 20 20 21 22 23 25 26 28 29 31 32 31 30 29 28 28 27 26 23 23 24 26 28 30 32 33 35 36 36 36 36 38 40 41 41 39 38 37 36 35 35 36 37 38 38 38 39 39 39 40 40 40 39 39 39 39 39 39 38 36 37 38
26 26 26 26 26 25 25 25 26 27 27 27 25 24 23 23 22 22 22 23 22 22 21 21 21 20 20 21 23 24 25 27 29 31 32 31 30 29 27 25 25 26 24 22 21 23 25 27 29 31 33 34 35 35 36 37 39 41 42 41 39 37 35 33 33 33 34 35 36 37 38 38 38 39 40 40 39 39 39 39 39 39 38 38 37 35 35
22 21 22 23 23 22 22 23 24 25 25 24 23 23 23 23 23 22 22 21 21 21 21 21 21 21 21 22 24 25 26 29 31 31 31 29 28 26 24 22 23 22 21 20 21 23 25 27 28 30 32 33 34 35 36 38 39 41 41 40 38 37 34 32 31 31 32 34 35 36 37 38 38 39 39 39 39 39 39 39 39 38 37 37 35 33 31
21 19 20 22 22 22 23 24 24 23 24 23 22 23 23 23 22 21 20 20 20 20 21 21 21 21 22 24 25 26 28 30 31 31 29 27 25 23 21 20 20 19 18 18 19 21 23 25 28 30 31 32 33 35 36 38 38 39 40 38 36 35 33 31 30 30 31 32 33 34 35 36 37 38 38 37 38 38 38 37 37 36 36 35 34 32 30
24 23 23 24 23 23 24 24 22 21 21 21 22 22 22 22 22 20 20 20 20 20 21 21 22 23 24 25 27 28 29 30 31 30 28 25 23 21 20 19 18 17 16 16 18 20 22 24 26 29 29 30 32 34 36 37 38 37 37 36 34 33 32 30 28 29 30 31 32 32 33 34 35 36 36 36 36 36 36 36 35 34 34 34 33 31 29
26 26 26 25 24 24 24 22 20 20 20 20 20 20 20 20 20 19 19 19 19 20 21 22 23 24 25 27 28 29 29 29 29 29 27 24 22 21 20 18 17 16 15 15 16 19 21 22 24 27 28 28 31 33 35 37 37 36 34 33 32 31 30 29 27 27 28 29 30 31 31 32 32 32 33 33 33 33 34 34 33 33 33 33 33 31 29
25 25 25 25 24 23 22 21 20 19 19 18 18 18 18 18 18 18 19 19 19 20 22 23 24 26 27 29 29 29 28 27 27 27 25 23 21 20 19 17 16 17 17 15 15 17 19 20 22 25 26 27 29 31 33 35 36 35 33 31 30 29 28 28 26 25 25 26 27 28 29 28 28 28 28 28 28 29 30 30 31 31 31 30 29 28 27
24 23 23 23 22 20 19 19 18 18 18 17 17 17 17 17 18 18 19 19 20 21 23 24 26 28 29 29 29 28 27 26 26 26 24 22 20 19 17 15 14 16 17 17 17 17 18 20 22 23 24 25 27 29 31 33 35 34 31 29 29 28 27 27 25 24 24 25 25 26 27 27 27 27 27 26 25 25 24 24 25 25 25 24 23 23 23
22 21 20 20 19 18 17 17 17 17 17 16 16 15 16 17 18 19 20 21 21 22 24 26 27 28 29 29 28 27 26 24 24 24 22 20 18 18 15 13 13 15 16 17 17 18 19 20 22 22 23 24 26 27 29 31 33 32 30 28 27 27 26 26 25 24 24 24 25 25 26 26 26 26 26 26 26 25 24 23 22 22 22 22 22 22 21
19 18 17 16 16 15 16 16 15 15 15 14 14 15 16 18 19 20 22 22 21 23 25 26 27 28 28 28 28 27 24 22 21 22 20 18 17 16 13 11 12 14 15 16 16 17 18 20 22 22 22 24 25 26 28 29 31 31 30 28 26 25 25 24 24 24 24 24 24 25 25 26 26 26 26 25 25 25 24 23 22 21 21 21 21 21 21
15 14 14 14 13 13 14 14 13 13 14 14 15 15 17 19 21 22 23 22 22 23 25 26 27 28 28 27 27 26 23 20 19 20 19 17 16 15 12 9 10 13 14 14 15 16 17 19 20 21 22 23 24 26 27 28 29 29 29 28 26 25 24 23 24 24 24 24 24 25 25 25 25 26 26 26 25 25 24 24 23 22 21 21 20 20 20
13 13 12 12 12 12 11 12 13 13 14 15 16 17 18 20 22 23 23 23 22 23 24 25 26 27 27 26 25 24 22 19 17 17 17 16 15 14 11 9 10 11 12 12 13 14 15 17 18 19 21 21 23 24 25 26 26 27 28 27 26 24 23 23 23 24 24 24 25 25 26 26 26 26 26 26 26 25 25 24 24 23 22 21 20 20 19
11 11 10 10 10 11 11 12 13 14 14 16 18 19 20 21 22 23 24 24 24 24 24 24 25 25 25 24 23 23 21 18 15 15 15 15 14 13 10 9 9 11 11 10 11 13 14 15 16 18 19 20 21 22 23 23 24 24 25 25 25 23 22 22 22 23 23 24 24 25 26 26 27 27 27 27 27 26 26 26 25 24 23 21 20 20 19
10 9 9 9 10 11 11 13 14 14 15 17 18 19 20 21 22 24 25 25 24 24 24 23 22 22 22 21 21 22 20 16 13 13 13 12 11 12 11 9 9 10 10 10 11 12 13 14 15 16 17 18 20 21 21 21 22 22 23 23 24 23 22 22 22 22 23 23 24 25 26 26 27 28 29 29 28 28 28 28 27 26 25 23 22 21 20
9 9 9 9 10 11 12 13 14 15 16 17 18 19 21 21 22 24 24 24 24 23 23 22 21 20 19 19 19 19 17 13 11 12 11 10 9 10 10 10 10 10 9 10 11 12 12 13 14 15 15 16 17 18 19 20 21 21 21 21 22 22 22 22 22 22 23 24 24 25 26 26 27 29 29 30 30 29 30 29 29 28 27 26 25 24 24
8 8 9 9 10 11 12 13 14 15 17 17 18 19 20 21 22 22 22 23 23 22 21 21 20 19 18 17 17 16 14 12 11 11 10 9 8 9 9 9 9 9 9 10 10 11 12 13 13 14 14 15 15 16 17 18 19 19 20 20 20 21 21 22 22 22 22 23 23 24 25 26 26 27 28 29 29 29 29 29 29 29 28 27 27 27 26
8 8 8 9 10 11 12 12 13 15 17 18 18 19 19 20 21 21 20 21 22 21 20 19 18 17 16 15 14 13 12 11 11 11 10 8 7 7 7 8 8 8 9 9 9 9 11 11 12 13 13 14 14 15 16 16 17 17 18 19 19 20 20 21 21 22 21 21 21 22 23 24 24 25 25 26 26 26 26 26 26 26 26 25 25 25 25
8 7 7 8 9 10 11 12 13 14 16 17 18 18 17 17 18 18 18 18 18 18 17 17 16 14 13 12 12 11 10 10 9 9 8 7 6 6 6 7 7 7 8 9 9 9 10 11 11 12 13 13 13 14 14 14 15 15 16 17 19 19 20 20 21 21 21 21 20 21 21 21 22 23 23 23 23 23 23 23 23 23 22 21 21 22 22
7 7 7 7 8 9 10 11 12 13 14 15 16 15 14 14 15 15 14 14 14 14 14 13 12 11 10 10 10 10 9 8 8 8 8 7 7 6 6 6 7 7 7 8 9 10 10 11 11 11 12 12 12 13 13 13 14 14 15 16 17 18 19 20 20 20 20 20 20 20 20 20 20 21 21 21 21 21 20 20 20 20 19 19 19 19 19
6 6 6 6 7 8 9 10 11 11 12 12 12 12 12 12 12 11 11 11 11 11 11 10 9 8 7 7 7 7 7 7 8 8 7 6 6 6 5 6 7 7 7 8 8 9 10 10 10 11 11 11 12 12 12 13 13 14 14 15 16 16 17 18 18 19 19 20 20 20 20 19 19 19 19 19 19 19 19 19 18 18 17 17 17 17 17
5 5 5 5 6 7 8 9 9 9 10 10 10 10 11 11 10 10 10 11 11 10 9 8 7 6 4 4 5 5 6 6 7 6 6 5 5 5 5 6 6 7 7 8 8 9 9 10 10 10 11 12 12 12 12 13 13 14 14 14 15 15 15 16 16 17 17 18 18 18 18 18 18 18 17 17 17 17 17 16 16 15 15 14 14 14 15
4 3 3 4 5 6 6 7 8 8 8 9 9 8 9 10 10 9 9 9 10 9 8 6 5 4 3 3 3 4 5 5 4 4 4 4 4 5 6 6 7 7 8 9 10 10 10 11 11 11 12 13 13 13 13 14 14 14 14 14 14 14 14 14 15 15 15 15 16 16 17 17 16 16 15 15 15 15 14 14 13 13 12 12 12 12 12
2 1 2 3 4 5 5 6 7 7 8 8 7 7 7 8 9 8 7 7 7 7 5 4 3 3 2 3 3 4 4 4 3 4 4 4 4 6 7 7 8 8 9 10 11 11 11 12 12 12 12 13 13 13 13 14 14 13 13 13 14 14 15 15 15 15 14 14 14 14 14 14 14 14 14 13 13 12 12 12 11 11 11 10 10 10 10
Wind_Direction
268 272 274 275 277 278 278 278 273 271 269 262 255 255 261 266 266 266 274 276 275 278 279 281 286 286 283 276 224 197 196 193 188 195 203 207 213 214 218 226 230 235 245 255 268 283 299 309 315 318 320 324 325 324 326 326 325 325 325 325 325 325 325 325 324 323 322 320 319 317 316 316 316 315 315 316 315 315 317 318 319 319 319 319 320 321 322
273 274 276 277 278 277 275 272 270 268 266 263 262 266 270 270 268 272 278 276 274 277 280 283 287 292 316 219 179 178 185 187 189 203 212 214 217 217 222 230 233 239 248 256 262 270 282 289 295 304 310 316 320 321 321 320 320 320 319 318 318 317 318 318 317 317 316 315 314 314 313 312 311 311 310 310 309 308 309 310 311 312 313 313 313 314 315
276 274 277 278 278 278 277 276 274 270 266 265 268 272 274 273 273 275 274 274 274 276 283 299 328 21 93 161 180 192 200 197 202 215 223 226 227 227 231 234 237 245 254 264 270 274 280 285 291 298 305 314 322 326 325 322 321 320 318 317 316 315 315 315 314 313 312 311 309 309 309 309 309 309 308 307 306 305 304 304 305 306 307 308 308 308 309
268 268 274 283 302 303 283 268 261 259 260 265 268 270 273 275 278 280 278 277 281 290 348 40 55 73 270 233 219 221 221 214 218 232 243 246 242 242 246 245 245 255 265 274 281 286 291 296 298 299 306 318 325 327 326 324 323 323 322 322 320 318 318 317 315 314 311 308 306 305 305 305 305 305 305 304 304 303 302 301 301 301 302 302 303 303 303
266 256 262 299 344 308 272 252 245 251 257 263 264 266 270 271 274 280 281 280 282 53 43 334 274 181 199 273 262 256 256 249 253 260 263 264 261 257 256 254 255 262 271 280 288 295 300 302 302 304 311 320 324 325 324 324 324 324 324 323 321 319 318 317 316 315 313 309 306 304 303 302 302 301 300 300 299 299 299 299 298 298 298 299 299 299 299
266 261 268 291 277 264 262 218 215 252 261 264 267 269 270 271 274 276 275 236 172 193 284 287 270 245 299 302 301 296 283 265 268 274 273 273 273 268 264 261 260 265 275 287 294 298 301 303 305 309 314 319 322 321 320 321 322 321 321 320 319 317 316 315 315 314 312 309 306 304 303 302 301 300 299 297 296 295 294 293 293 293 294 295 296 297 297
269 274 276 267 254 249 268 95 185 257 268 265 267 268 268 271 273 272 274 265 206 122 50 27 343 335 321 311 306 293 275 264 263 267 270 274 277 277 274 266 263 268 280 294 302 303 304 307 309 313 316 316 315 314 316 319 318 317 316 316 316 316 314 313 312 311 309 307 305 304 303 302 301 299 298 297 295 293 291 290 288 288 288 289 290 292 293
264 266 250 252 258 270 280 227 196 231 254 250 258 264 265 266 268 273 282 286 104 75 43 10 334 319 308 300 292 283 277 272 268 268 274 281 284 287 287 282 278 279 282 291 301 302 304 308 311 313 313 311 310 312 315 318 317 316 315 313 314 315 313 312 311 309 308 307 305 302 302 302 301 299 297 296 294 293 291 289 287 285 284 284 284 285 287
253 257 250 258 277 280 262 243 210 227 259 259 274 283 281 281 286 281 267 132 99 57 4 338 311 293 292 291 287 285 279 270 270 277 283 288 292 293 293 293 294 290 284 285 292 296 300 306 310 311 310 310 311 313 315 317 317 316 315 313 313 313 312 311 310 308 307 306 304 301 299 300 302 300 297 296 294 292 290 289 286 284 282 281 281 280 281
248 258 263 262 267 271 264 272 3 27 18 3 347 299 284 350 58 88 121 114 67 2 329 314 292 271 275 280 289 299 295 257 269 288 291 292 294 294 295 298 299 292 281 280 287 292 298 305 309 311 310 311 312 314 314 315 315 314 313 313 313 312 310 310 308 306 304 302 302 299 296 296 298 298 297 295 294 292 290 287 286 284 282 280 279 277 277
248 254 261 256 261 272 240 208 20 55 52 22 360 292 279 160 109 104 97 58 333 320 299 291 274 254 263 270 286 304 320 305 297 301 303 302 298 297 300 300 293 284 280 284 289 293 299 305 309 310 310 311 312 312 312 312 312 312 312 312 312 310 309 308 306 303 301 299 299 298 295 293 294 295 295 294 293 291 289 286 285 283 282 281 279 277 276
242 246 252 249 261 278 285 301 318 77 97 39 314 283 279 148 129 97 45 300 292 286 281 281 261 245 260 277 290 297 299 300 299 300 304 305 304 305 304 294 287 288 290 293 295 298 303 307 309 309 309 309 309 309 309 310 310 310 310 310 309 308 307 306 303 301 300 299 298 297 295 293 292 292 294 294 293 291 288 286 284 282 281 281 279 277 276
241 245 251 254 262 263 264 281 277 174 125 238 258 273 274 156 193 284 276 263 279 282 278 280 271 265 275 284 289 292 292 292 293 297 303 305 306 308 299 290 292 296 297 298 299 302 306 308 306 306 307 306 306 307 307 308 308 308 308 307 307 306 305 304 303 301 300 299 298 297 295 293 292 292 291 291 290 289 287 286 284 281 281 281 280 278 275
242 246 254 261 267 252 226 244 224 171 177 257 260 262 122 191 248 279 263 261 283 284 274 277 280 280 283 285 286 288 287 286 291 298 303 304 301 298 294 295 299 300 298 299 300 302 305 305 305 305 305 305 306 306 306 307 307 307 307 306 306 305 305 304 303 302 301 301 300 299 297 296 294 292 289 288 287 286 285 285 283 280 280 280 280 280 278
244 254 252 250 271 262 156 144 160 193 218 259 280 277 260 265 283 292 279 274 280 274 269 277 282 284 285 285 284 282 280 284 290 295 297 297 297 297 298 300 301 299 298 299 300 301 303 304 304 305 305 305 306 306 306 307 307 307 307 307 306 305 303 303 302 302 303 302 302 301 300 299 296 292 290 289 288 285 284 284 281 280 281 281 282 283 282
247 257 246 236 278 287 160 176 245 254 242 262 278 283 285 289 292 291 285 280 276 268 270 276 279 282 285 286 285 282 281 285 288 290 292 294 296 298 299 300 299 298 299 300 299 301 303 304 304 305 305 306 306 306 307 308 308 308 308 307 305 304 303 303 303 303 303 303 302 302 303 302 300 297 295 294 291 288 287 285 280 279 282 284 286 286 286
259 267 271 278 289 283 212 205 246 262 262 269 277 283 284 285 286 286 283 282 280 276 277 278 277 278 284 287 287 284 282 282 284 289 293 295 296 297 297 298 298 298 299 300 300 302 304 305 305 306 306 307 307 308 310 311 311 310 308 306 305 304 304 304 305 305 304 304 304 305 306 306 305 305 304 300 293 289 287 283 278 275 276 278 280 281 283
265 267 269 273 276 272 260 250 252 259 266 273 278 280 278 278 283 284 281 280 281 279 278 276 272 273 280 285 283 277 274 279 286 291 293 293 294 295 296 297 297 298 300 301 302 304 306 306 307 307 308 310 311 311 312 312 311 309 307 305 305 305 306 306 307 306 306 306 307 309 310 310 310 307 303 296 289 286 284 280 276 275 273 272 272 273 274
260 261 260 260 262 264 265 264 261 262 267 270 272 274 274 277 283 282 278 279 282 284 285 281 275 275 277 275 272 271 275 282 288 290 290 291 293 294 295 296 298 300 302 304 306 307 307 308 310 311 312 313 314 314 314 312 310 308 307 307 307 308 308 308 308 308 308 309 310 311 311 311 309 305 299 291 286 284 283 282 279 276 275 273 272 274 274
249 256 262 262 263 265 266 267 267 267 268 269 272 274 276 281 284 280 277 282 286 288 288 284 280 278 275 269 270 274 278 283 286 287 289 291 293 293 295 297 300 303 305 306 307 308 309 311 313 314 314 314 315 316 315 313 311 310 309 309 309 308 308 309 309 309 309 309 309 309 309 308 306 303 298 292 286 283 282 282 280 278 277 275 273 275 276
254 257 261 262 265 267 267 264 263 263 266 272 277 276 275 280 283 280 281 286 288 287 285 282 280 279 276 273 274 277 280 283 285 287 290 292 293 295 298 300 303 305 307 307 308 309 311 314 315 314 314 315 317 318 316 315 314 313 312 311 310 310 310 310 309 308 307 305 304 304 305 305 304 301 297 293 289 286 285 283 279 277 277 276 276 277 277
254 245 245 250 255 265 270 268 267 267 273 279 278 272 271 277 279 280 282 285 286 285 282 280 278 277 277 276 277 279 282 285 286 289 291 292 294 297 300 303 305 306 307 307 309 311 314 315 314 314 314 316 319 320 319 318 317 315 314 314 313 311 309 307 306 305 304 302 302 302 303 303 303 302 299 295 289 285 285 285 281 278 278 278 278 278 278
246 243 245 250 254 263 271 275 279 279 278 274 264 262 270 277 277 277 279 281 282 282 280 277 275 274 275 276 278 280 283 285 287 290 291 293 296 300 303 306 306 306 307 309 311 314 315 315 314 314 315 319 323 324 322 321 320 319 318 315 311 308 306 305 305 305 303 302 303 302 301 301 302 302 301 298 294 289 287 286 285 283 281 281 280 279 278
251 253 256 258 259 263 269 277 282 282 276 267 261 265 274 280 280 279 278 276 275 274 273 274 275 275 274 275 277 280 283 286 288 289 290 294 298 302 304 306 305 306 308 311 314 314 314 314 313 314 318 325 328 326 325 325 324 320 315 310 305 305 306 307 307 305 303 304 304 302 300 301 301 301 299 297 297 297 294 291 288 287 285 284 283 281 279
248 253 258 260 260 264 271 277 279 276 273 274 276 277 277 278 280 280 276 273 271 269 268 270 272 274 274 275 278 281 284 286 287 289 292 296 300 303 305 305 306 308 311 312 313 314 313 313 314 318 324 330 331 328 328 327 322 315 311 308 307 308 309 310 310 308 307 307 306 304 301 301 301 301 298 296 296 299 300 299 296 293 290 287 286 285 284
247 252 257 259 261 264 269 272 271 270 273 277 281 282 279 277 277 275 272 271 270 268 268 268 269 272 275 276 279 282 283 285 288 291 295 300 302 304 305 306 308 310 311 311 312 312 312 314 318 324 329 333 332 330 328 323 318 316 316 316 315 314 314 314 312 311 310 309 307 306 303 302 301 301 300 299 298 298 300 302 301 301 300 299 297 294 291
249 250 252 254 257 260 262 261 261 264 269 275 279 280 279 277 274 271 270 269 268 267 268 269 269 272 275 277 279 282 283 286 289 293 297 301 303 304 306 308 309 309 308 310 312 312 314 319 324 328 331 334 333 330 326 323 323 325 326 325 322 320 320 318 316 314 313 311 308 306 305 305 304 303 302 301 300 299 299 300 300 301 303 304 305 303 297
250 248 246 244 246 253 255 254 255 259 266 272 274 275 276 275 273 271 268 265 264 266 267 269 271 272 274 277 279 282 285 288 292 296 300 302 303 305 308 308 307 306 307 309 312 315 320 326 328 329 332 335 333 331 330 330 330 331 331 330 327 324 322 321 320 318 316 313 310 309 309 309 308 306 304 302 300 299 299 299 298 298 298 301 305 306 302
252 249 247 243 243 248 253 255 259 264 269 271 271 270 271 271 269 268 266 265 266 267 266 267 269 271 272 276 279 282 286 290 294 299 301 302 304 308 308 306 305 304 306 311 318 323 326 328 327 328 332 336 335 335 336 336 334 333 333 331 328 325 323 323 322 319 315 313 312 312 312 310 308 306 304 302 300 299 297 297 297 298 299 301 304 305 308
251 248 248 245 245 249 253 258 263 266 267 267 268 267 266 264 262 262 264 265 267 268 267 268 270 271 273 278 281 285 290 294 298 301 302 303 307 308 306 304 303 304 309 318 325 327 326 326 327 330 334 337 338 340 341 339 337 335 334 332 329 327 325 325 323 319 315 313 314 314 313 312 310 308 306 305 304 302 299 299 300 300 301 302 302 301 308
252 247 248 250 250 253 255 256 259 261 262 263 265 263 262 262 260 259 261 263 265 267 268 269 272 274 277 281 285 289 294 297 299 300 301 303 305 304 303 302 302 305 314 325 328 326 326 326 328 333 336 338 341 345 345 343 340 337 334 332 330 329 327 328 328 325 321 320 319 318 317 316 315 314 311 309 308 306 304 304 304 303 303 305 305 305 309
251 247 251 254 253 254 255 254 255 257 259 261 261 261 262 263 262 260 261 262 264 267 270 272 275 279 282 286 289 293 296 297 297 298 299 301 302 301 301 300 300 305 316 325 326 326 327 327 330 336 337 338 344 349 349 345 342 338 334 331 330 330 330 331 332 332 330 327 324 322 320 320 319 318 315 314 313 313 311 308 307 307 308 309 311 315 319
246 247 254 257 254 255 258 258 257 257 258 259 260 261 262 263 262 261 262 263 266 269 271 274 278 282 285 289 292 295 297 296 295 296 297 300 302 301 299 297 298 305 316 322 324 325 326 329 335 338 336 339 348 354 351 346 342 338 334 331 330 330 332 333 335 335 334 331 329 327 325 323 322 321 320 320 320 319 317 315 312 313 313 315 318 324 328
247 248 254 258 257 259 262 263 262 259 257 257 257 257 257 257 258 259 261 264 267 270 273 277 281 285 288 292 294 295 294 294 294 296 299 303 304 301 295 293 295 302 312 320 322 322 327 336 340 336 334 342 354 357 352 347 343 339 334 332 331 332 333 334 337 338 337 335 335 333 329 325 324 323 324 325 325 323 322 321 319 318 318 320 324 329 333
252 252 255 257 258 260 262 264 263 261 258 256 255 253 252 253 255 258 262 266 270 274 278 282 286 288 291 293 292 292 292 293 295 297 301 303 302 296 291 290 294 299 307 316 319 322 331 341 339 332 334 347 358 358 352 347 344 340 336 333 333 334 334 335 338 342 341 340 339 336 333 330 328 327 326 328 328 327 326 326 326 325 324 326 329 333 335
254 254 255 257 258 259 260 261 261 260 257 255 254 252 252 254 257 261 266 270 275 281 284 287 289 291 291 291 290 291 293 295 296 297 299 299 295 290 288 290 295 300 305 313 319 324 334 340 336 332 339 353 0 359 354 349 345 342 339 336 336 338 337 336 339 344 347 348 346 343 341 341 340 338 336 335 333 331 331 330 329 328 327 327 329 330 329
254 254 256 257 257 259 259 257 256 254 251 250 252 253 255 259 263 266 271 275 280 284 286 287 289 289 288 289 290 291 294 295 294 295 295 292 287 285 286 290 296 302 308 315 321 328 335 338 334 334 345 358 2 359 355 350 347 345 343 341 341 341 340 340 343 347 351 354 354 353 352 353 352 351 350 348 345 343 341 339 337 336 333 331 329 327 325
253 253 254 255 255 256 255 252 251 250 249 250 253 256 260 265 268 272 277 281 284 286 286 286 286 286 286 288 289 290 291 292 290 289 287 284 280 280 282 288 296 303 310 316 323 331 337 336 333 338 350 1 2 360 356 353 350 349 348 347 347 346 344 344 348 352 355 357 360 0 0 1 360 359 359 358 356 354 352 350 350 349 347 346 344 342 339
250 250 252 252 251 251 250 249 249 250 251 255 260 263 268 272 274 276 278 281 283 284 284 283 284 284 285 287 288 288 289 289 285 282 280 276 272 273 277 286 294 300 308 316 324 332 336 333 331 340 353 1 1 360 358 355 352 352 354 354 353 351 349 350 353 357 359 2 4 5 6 6 6 4 5 5 4 3 1 359 360 360 360 359 359 357 354
247 248 249 247 245 245 245 247 251 255 258 263 266 268 271 274 276 277 279 280 281 281 280 281 282 283 285 286 286 287 287 285 279 275 272 267 264 266 270 276 285 294 305 316 324 331 333 330 330 340 354 1 360 358 358 356 354 355 358 359 358 355 354 356 359 2 4 7 9 9 10 11 11 11 11 11 11 10 9 8 7 7 8 9 9 9 8
241 241 240 238 240 242 246 252 257 261 266 270 272 273 275 276 278 279 281 282 282 281 281 282 283 284 284 285 285 285 286 283 275 267 263 260 259 262 264 271 285 295 304 315 325 329 328 327 331 342 354 360 359 357 357 356 356 357 1 3 3 1 1 2 5 7 9 11 13 14 15 16 17 17 17 17 17 16 16 16 15 15 14 15 16 17 18
231 232 231 234 240 246 252 259 264 268 274 277 279 280 281 282 283 284 285 285 285 283 282 281 280 280 282 283 283 284 284 280 269 259 253 252 256 260 263 272 287 296 302 314 325 327 324 327 336 347 354 356 357 356 356 356 356 359 3 6 6 7 9 10 11 13 15 17 18 20 21 22 23 23 23 23 24 24 23 23 24 24 23 24 24 25 27
221 225 228 237 247 254 260 267 272 275 278 280 283 285 286 286 287 288 287 286 285 284 282 281 280 280 282 282 281 281 282 278 265 253 247 245 251 260 268 278 290 297 306 320 328 326 324 331 342 350 353 353 353 353 354 355 357 0 4 7 9 11 13 15 16 18 20 22 24 25 26 29 30 30 30 31 32 32 31 32 32 33 33 34 35 37 39
219 226 235 247 257 263 269 275 279 282 284 285 285 287 288 288 287 287 286 285 285 285 285 285 284 282 279 277 276 277 277 272 259 250 243 236 241 255 268 282 294 302 313 325 328 326 328 335 344 349 350 350 349 349 350 353 357 1 5 8 10 13 15 17 19 20 22 25 27 28 29 31 33 34 34 35 37 38 39 40 41 42 43 44 46 47 49
225 233 244 254 262 269 276 281 285 288 290 291 290 290 291 291 290 289 289 289 288 288 288 287 284 280 277 274 273 272 267 258 248 245 242 234 235 249 266 281 294 305 317 325 326 327 330 336 342 345 346 346 346 347 348 351 355 0 4 8 10 14 17 18 19 21 23 25 27 28 29 31 33 35 36 37 38 40 41 44 46 49 50 52 53 54 55
231 240 250 259 267 275 283 288 292 293 294 295 296 298 299 297 295 294 293 291 289 289 287 284 281 278 276 274 270 264 257 247 240 237 237 237 241 254 269 284 296 308 318 322 323 326 331 336 341 342 343 344 345 345 345 348 353 357 2 6 10 14 17 19 20 22 23 23 25 26 27 29 30 33 35 38 38 39 41 43 47 51 53 55 58 60 60
236 246 256 266 276 284 290 294 297 299 300 302 304 306 305 301 298 297 295 292 290 289 288 286 282 278 273 268 260 253 248 242 235 230 232 243 258 267 277 290 303 312 317 320 325 330 333 337 341 342 342 344 344 343 344 347 351 355 360 5 9 12 15 17 19 21 21 22 24 25 25 27 28 30 33 36 38 38 39 42 45 49 53 56 59 62 64
242 255 266 275 283 291 297 301 304 307 308 309 311 312 312 308 307 305 301 297 295 294 292 290 286 277 267 257 250 244 239 235 231 227 229 245 263 273 284 298 308 313 316 321 328 331 332 336 341 343 344 345 345 344 347 350 353 356 0 3 6 8 11 13 15 17 18 21 22 23 24 26 27 28 30 33 36 38 39 42 45 48 51 54 58 63 66
246 259 271 280 288 297 306 311 313 314 314 314 316 318 317 316 317 318 314 309 307 305 302 298 294 285 269 252 241 234 226 221 221 222 229 246 264 276 291 302 308 312 317 323 326 328 331 336 341 344 346 348 348 349 352 356 357 359 1 2 3 5 7 8 10 13 15 17 19 21 23 25 26 27 29 31 33 36 38 41 44 47 50 53 58 63 67
239 256 271 286 300 310 316 319 319 319 320 320 322 323 322 320 321 325 323 318 315 315 312 309 307 300 281 254 234 220 210 208 210 218 233 252 268 284 299 306 307 309 316 320 321 323 329 335 338 340 343 347 349 351 355 358 359 360 0 1 2 3 4 4 5 7 9 12 15 16 19 22 24 26 28 30 32 34 37 39 41 45 48 50 55 59 63
237 262 284 303 312 315 320 325 328 331 331 330 329 330 330 327 325 326 325 320 318 319 320 318 314 304 282 252 226 211 206 208 217 232 249 267 288 303 306 304 303 306 313 318 320 321 325 331 334 336 339 342 345 348 351 354 355 356 358 359 0 1 1 1 2 2 4 6 8 9 12 15 17 20 24 29 32 34 36 38 40 41 42 44 47 50 52
224 265 301 314 315 319 329 338 340 338 337 336 337 344 348 341 333 331 331 328 326 327 324 317 308 298 270 238 222 218 222 234 247 260 275 295 307 304 297 297 303 309 312 315 317 320 324 329 332 334 336 339 341 343 344 346 348 351 352 354 356 357 357 357 358 358 359 0 1 2 4 6 7 9 14 19 23 27 31 33 35 37 38 39 41 42 41